Location: Pedholt
(56.0260°N, 10.2097°E)
Time: 21:03:52
(UTC+00:00)

Tiros 1 - Pass Details

Date: 06 August 2021
Orbit: 630 x 663 km, 48.4° (Epoch: 19 September)

Event Time Altitude Azimuth Distance (km) Brightness Sun altitude
Rises 15:09:34 0° 201° (SSW) 2,985 11.1 32.3°
Reaches altitude 10° 15:12:58 10° 176° (S) 2,073 10.0 31.8°
Maximum altitude 15:15:22 14° 146° (SE) 1,827 9.4 31.5°
Drops below altitude 10° 15:17:46 10° 116° (ESE) 2,071 9.5 31.2°
Sets 15:21:10 0° 91° (E) 2,979 10.1 30.8°
